Tracking 30995 objects as of 7-Jul-2025
HD Live streaming from Space Station
objects crossing your sky now

STARLINK-2280

Track STARLINK-2280 now!
10-day predictions
STARLINK-2280 is classified as:


NORAD ID: 47861
Int'l Code: 2021-021B
Perigee: 553.4 km
Apogee: 555.4 km
Inclination: 53.1 °
Period: 95.6 minutes
Semi major axis: 6925 km
RCS: Unknown
Launch date: March 14, 2021
Source: United States (US)
Launch site: AIR FORCE EASTERN TEST RANGE (AFETR)
Your satellite tracking list
Your tracking list is empty




NASA's NSSDC Master Catalog

Two Line Element Set (TLE):
1 47861U 21021B   25187.52105946 -.00001732  00000-0 -97443-4 0  9993
2 47861  53.0553 291.7139 0001413 110.0747 250.0394 15.06390914239162
Source of the keplerian elements: AFSPC